Tracking 29892 objects as of 21-Nov-2024
HD Live streaming from Space Station
objects crossing your sky now

STARLINK-31713

Track STARLINK-31713 now!
10-day predictions
STARLINK-31713 is classified as:


NORAD ID: 59381
Int'l Code: 2024-062H
Perigee: 481.4 km
Apogee: 483.2 km
Inclination: 53.2 °
Period: 94.1 minutes
Semi major axis: 6853 km
RCS: Unknown
Launch date: April 2, 2024
Source: United States (US)
Launch site: AIR FORCE WESTERN TEST RANGE (AFWTR)
Your satellite tracking list
Your tracking list is empty




NASA's NSSDC Master Catalog

Two Line Element Set (TLE):
1 59381U 24062H   24325.11364668 -.00000246  00000-0  38311-5 0  9995
2 59381  53.1612 302.7269 0001305 101.2970 258.8178 15.30205487 36995
Source of the keplerian elements: AFSPC